Temp
30 31 31 32 33 32 32 31 30 29 27 28 28 28 26 25 23 22 26 30 31 31 31 29 28 27 27 26 25 24 23 22 23 23 24 24 25 24 24 25 24 23 24 24
29 31 33 32 31 31 32 31 30 29 28 28 28 28 26 25 24 22 24 28 31 32 32 30 29 28 27 26 25 23 23 22 23 24 25 25 25 25 25 25 24 24 24 24
31 32 31 31 31 31 32 32 31 30 28 28 28 28 26 25 25 22 26 29 32 32 32 31 29 29 28 26 26 24 24 23 23 24 24 24 23 23 24 24 25 24 24 24
31 31 30 31 31 32 32 32 30 29 30 30 29 30 28 25 25 23 29 29 32 32 32 32 30 29 28 27 26 25 24 23 23 23 24 25 25 26 26 25 25 25 24 24
30 30 30 30 31 32 32 31 31 30 30 30 31 30 29 26 27 27 28 30 31 32 32 32 31 29 29 28 26 25 24 23 24 23 25 23 25 26 25 25 24 25 23 24
31 31 32 32 32 32 32 31 30 30 31 30 32 31 31 29 29 31 29 30 31 33 32 32 31 30 29 28 27 26 24 23 24 23 23 24 25 26 26 25 25 25 25 24
30 30 32 31 31 32 31 31 30 30 30 31 31 30 32 31 31 31 31 30 30 32 33 32 31 30 29 28 27 26 25 24 23 24 24 24 24 24 24 24 25 26 26 26
30 29 31 32 32 31 31 32 32 28 28 29 30 29 31 31 31 31 32 33 29 31 33 33 31 30 29 28 27 27 25 24 24 24 24 24 23 23 24 24 26 26 26 26
31 31 32 32 33 32 32 31 34 31 31 31 32 32 32 32 30 30 31 31 30 30 32 33 31 30 29 28 27 27 26 25 24 24 24 24 24 24 26 26 24 25 25 26
31 30 31 31 31 31 31 33 31 31 27 28 32 32 31 29 29 29 30 30 30 29 27 32 32 30 30 29 28 27 26 25 25 25 24 24 24 24 24 24 24 25 25 24
32 31 30 30 30 31 31 31 31 31 30 26 28 28 29 27 28 29 29 30 29 29 27 31 31 30 30 29 28 27 26 26 25 25 25 25 25 25 24 23 24 24 24 24
31 32 31 31 31 31 31 31 32 29 26 31 23 30 29 27 28 29 29 30 30 26 26 29 29 30 29 29 29 28 27 26 26 26 25 25 25 25 25 24 24 24 23 24
31 31 30 30 31 30 31 32 32 33 21 23 30 30 29 28 27 27 28 29 29 28 23 25 26 25 27 28 28 27 27 27 26 26 25 25 25 25 25 25 25 24 24 24
28 31 30 29 30 30 30 30 31 32 31 32 31 31 30 27 25 24 25 27 29 28 28 23 23 22 26 24 27 27 26 26 26 26 26 25 25 25 25 25 24 24 24 24
30 29 29 30 29 30 30 30 30 31 31 31 29 30 28 25 22 21 21 24 27 26 24 24 25 23 21 21 23 24 25 26 26 25 25 25 25 25 25 25 24 24 24 24
30 28 29 28 29 29 30 29 28 30 30 30 29 28 25 23 22 20 20 21 27 26 25 22 20 21 21 20 19 22 24 23 23 24 24 25 24 24 24 24 24 23 23 23
29 29 28 28 28 28 28 29 29 29 28 29 30 27 25 23 21 18 18 18 17 18 24 23 21 19 19 19 19 18 21 23 22 23 21 22 22 22 23 23 23 23 23 24
28 28 28 27 27 26 28 28 28 28 27 28 27 27 25 24 21 19 17 17 16 16 16 17 19 20 20 19 18 18 18 20 21 21 22 21 22 22 22 22 23 23 22 23
28 28 28 27 27 28 27 27 28 28 29 28 27 26 26 25 24 21 20 19 17 16 15 15 15 16 17 17 18 18 19 20 21 20 21 21 22 21 21 21 22 22 21 21
28 27 27 28 26 26 27 27 27 27 27 28 27 27 26 26 28 24 21 20 20 18 16 15 16 15 16 16 17 19 19 19 20 21 20 20 21 20 19 20 20 20 21 20
27 27 27 28 26 28 27 26 27 25 26 27 27 26 26 26 25 21 21 21 20 19 19 17 16 15 15 16 17 18 19 19 19 19 19 19 19 19 19 19 18 18 18 18
26 26 27 26 26 25 26 25 26 26 26 26 26 25 24 23 22 22 20 21 20 18 18 17 16 15 14 16 17 18 18 18 18 19 19 19 18 18 18 17 16 14 15 15
26 27 27 27 27 25 26 26 26 27 26 26 25 25 24 23 22 21 20 21 20 19 17 16 16 15 13 14 16 16 16 16 17 17 16 16 16 16 16 16 15 14 14 14
26 25 26 25 26 26 26 26 26 26 26 26 25 25 24 24 23 21 21 21 19 19 18 16 15 15 13 13 14 14 15 15 15 15 14 14 15 15 15 14 13 13 13 12
26 25 26 26 25 25 25 26 26 25 26 25 25 25 24 24 23 22 21 20 19 17 17 15 14 14 13 12 12 13 14 15 15 14 13 13 13 14 13 13 12 12 11 11
26 27 26 27 27 26 27 26 26 25 25 25 24 23 23 23 22 21 21 20 19 18 17 16 15 14 14 13 13 12 13 14 14 13 12 12 12 12 12 12 11 11 11 11
Height
777 782 783 772 768 773 775 784 790 791 795 796 797 799 803 808 818 821 813 796 798 801 803 811 818 823 827 833 837 841 845 847 850 852 854 856 858 861 864 866 868 870 871 871
787 784 765 766 774 778 779 785 793 794 795 799 797 797 800 805 809 816 816 803 793 796 799 808 815 820 825 830 835 841 844 847 849 851 853 854 857 860 862 864 867 870 871 873
780 771 769 778 781 784 779 782 787 792 794 793 798 797 803 803 803 812 807 799 788 791 796 803 811 816 822 828 833 838 842 846 848 850 853 855 858 860 862 864 865 868 870 871
775 769 780 779 781 776 780 776 785 794 795 800 788 794 791 799 802 807 793 793 785 787 793 798 806 812 818 824 831 836 840 844 848 850 851 853 855 857 859 862 863 866 868 869
778 781 783 783 777 773 778 774 783 786 790 789 781 794 783 791 793 792 791 784 783 785 789 793 801 808 814 821 827 833 838 842 845 848 850 853 853 855 859 860 863 864 867 868
772 767 770 771 767 771 772 782 786 786 786 798 773 783 772 783 780 772 778 779 778 778 784 791 797 805 811 818 824 830 835 839 843 847 850 852 852 853 856 859 861 862 864 867
776 777 768 769 779 773 779 782 798 803 801 795 777 787 769 765 763 762 764 773 775 775 779 786 794 800 807 814 820 826 832 836 841 844 847 850 853 855 857 859 859 859 861 863
781 794 774 766 771 777 778 774 785 821 816 803 782 796 770 760 757 755 754 755 773 774 772 780 789 797 804 811 818 822 828 833 838 842 844 847 851 854 856 856 856 859 859 861
777 777 758 761 760 766 772 786 758 783 782 784 768 765 759 755 761 759 756 757 764 770 769 776 785 794 800 807 814 819 824 830 834 838 842 845 848 851 851 853 857 858 859 859
767 781 764 767 765 765 769 757 787 781 816 813 772 771 773 775 772 766 762 760 760 769 778 773 781 789 795 803 810 817 821 826 831 835 839 842 844 847 850 853 856 856 858 859
761 766 777 769 774 767 776 775 772 771 783 818 803 798 771 779 772 768 762 757 765 768 776 774 780 786 792 799 805 812 818 823 827 831 834 837 841 844 847 850 851 853 855 856
762 757 773 765 764 762 761 760 758 790 816 779 827 786 769 774 770 764 761 760 760 772 778 779 783 786 791 796 802 807 813 818 823 827 830 834 836 839 842 844 847 849 851 853
763 763 778 775 771 765 769 761 761 754 813 828 790 785 766 772 775 770 767 762 764 769 781 783 787 791 794 796 800 805 810 814 819 823 826 829 832 835 837 840 842 844 846 848
768 764 774 785 775 767 773 771 765 765 771 767 770 769 768 776 784 783 778 770 765 766 771 782 788 793 794 798 800 804 808 812 816 819 822 824 827 830 832 836 838 840 842 844
764 776 773 769 768 767 769 771 767 767 764 771 773 773 776 787 791 792 789 780 771 774 778 782 787 793 797 801 801 804 807 810 813 816 819 820 823 826 829 831 834 836 839 841
764 779 775 779 772 771 773 774 777 773 769 769 772 777 782 791 792 796 795 790 773 775 781 790 792 797 798 802 802 803 805 809 813 813 815 818 820 822 824 827 828 831 833 836
773 774 782 785 775 778 788 773 774 775 771 770 776 778 786 793 796 801 801 799 795 791 783 788 792 791 797 800 802 802 804 808 810 810 811 813 815 817 820 822 825 828 830 832
775 780 778 785 784 806 777 770 772 774 776 772 775 776 784 787 793 798 801 802 801 798 797 795 793 793 795 794 794 798 801 805 806 806 809 811 812 814 815 817 818 823 825 828
771 775 780 790 786 775 778 777 778 778 773 772 774 779 782 781 786 796 798 801 800 801 800 799 795 794 794 796 795 794 795 799 802 802 805 808 806 810 813 814 814 815 819 823
770 774 781 777 795 798 778 773 772 772 787 769 774 778 781 779 778 789 797 798 798 799 799 797 797 795 794 793 790 788 790 792 799 803 803 802 800 807 808 811 811 811 812 814
780 780 784 777 786 773 770 773 773 796 789 773 774 779 780 780 785 792 796 796 797 797 797 797 795 794 793 791 791 788 788 790 792 797 792 801 806 809 807 810 810 809 810 811
781 782 778 781 788 795 769 778 785 780 776 775 778 782 786 789 792 792 796 795 797 800 799 798 797 796 792 790 790 789 790 791 795 795 797 800 799 802 808 806 804 807 808 810
783 772 774 777 774 772 770 773 772 772 775 778 781 784 786 790 792 795 797 797 799 800 801 800 799 798 796 793 790 790 792 794 795 795 795 799 803 803 804 806 810 809 812 812
769 770 773 777 771 772 772 772 773 774 775 778 781 784 785 787 790 795 796 796 799 801 802 802 802 801 799 796 795 795 795 796 797 798 801 803 805 807 810 812 813 815 814 817
763 770 768 770 771 772 772 770 772 775 778 781 783 785 787 788 791 793 795 798 800 801 802 803 804 803 804 801 800 798 797 799 799 801 804 806 808 810 811 812 815 816 818 821
760 761 767 765 757 764 761 766 769 774 778 781 783 786 789 790 791 795 797 799 801 802 804 804 805 806 806 804 803 801 802 801 801 803 805 807 809 811 813 815 818 820 821 822
Wind_Speed
13 11 14 15 11 5 2 2 1 4 8 8 7 6 11 16 14 13 12 14 17 15 16 17 15 15 16 17 16 15 14 15 14 14 14 13 13 12 9 8 7 6 5 3
9 14 13 2 3 5 4 2 4 5 6 7 4 8 10 12 17 14 16 19 17 18 15 17 17 18 18 18 18 15 14 14 14 14 13 13 14 13 10 9 8 7 7 4
11 12 7 8 10 10 8 5 3 6 7 8 6 10 12 12 12 11 21 20 20 18 16 16 19 19 18 19 19 17 15 16 16 15 14 12 11 10 9 9 9 9 8 6
8 4 11 11 12 11 10 4 2 1 6 4 4 2 12 14 16 14 22 19 18 19 17 16 20 20 20 20 18 18 16 17 18 17 15 15 15 14 12 11 9 9 9 6
6 8 12 12 11 9 3 1 5 5 8 9 8 7 7 14 17 19 22 22 21 19 17 16 20 22 20 20 20 19 16 16 18 18 15 15 14 12 12 10 10 9 9 8
1 1 7 12 12 10 4 6 5 6 7 10 3 9 6 8 16 16 22 22 21 20 18 18 21 21 21 20 20 20 20 17 18 16 15 17 16 12 12 12 12 11 12 12
10 12 9 7 11 10 11 11 8 6 6 6 2 6 8 3 3 11 17 23 20 20 19 18 16 20 22 21 22 21 21 20 19 19 16 16 15 15 12 10 12 10 11 13
7 10 14 13 16 10 15 16 10 4 6 6 3 5 7 8 6 9 13 16 21 22 20 19 20 22 24 23 23 22 22 21 21 20 19 17 13 12 13 13 10 12 11 11
4 3 8 6 11 10 13 11 13 5 12 6 6 5 8 3 8 2 8 12 18 23 20 20 22 24 25 24 23 24 22 21 21 22 20 17 15 16 15 12 13 12 10 11
2 3 7 7 6 9 11 9 9 9 4 5 5 2 8 11 10 5 7 8 13 19 16 17 20 24 25 25 24 22 22 22 21 20 20 18 17 17 16 13 14 14 10 12
5 6 7 10 10 9 8 11 9 2 6 3 3 3 7 8 9 10 4 6 12 15 15 16 18 22 24 23 23 23 22 22 23 21 21 19 18 17 15 13 14 15 13 12
4 6 6 6 3 4 9 12 12 6 8 3 5 2 5 6 7 10 4 4 4 5 10 13 13 15 19 23 22 23 22 22 23 22 21 20 19 17 17 15 13 12 11 12
3 4 6 12 10 6 8 7 12 12 11 12 9 4 5 6 7 10 9 3 4 13 11 7 11 10 12 18 21 21 21 21 21 21 21 21 20 19 18 17 15 14 12 12
4 4 9 7 8 4 4 7 8 12 12 12 6 2 5 9 9 11 11 8 2 5 14 11 6 9 14 13 17 18 18 19 19 19 20 20 21 21 19 18 17 16 14 13
5 6 5 4 2 4 5 0 1 5 8 8 9 3 9 10 8 9 10 8 3 5 5 0 11 7 5 5 8 7 11 13 15 17 19 20 19 19 19 19 18 17 16 15
2 1 6 3 3 3 9 5 4 6 1 0 2 4 7 6 9 10 11 11 1 6 6 8 6 12 12 9 2 4 7 7 12 15 18 16 18 19 20 19 20 19 18 17
4 1 5 5 6 4 10 9 5 3 2 5 8 8 2 4 6 8 9 10 10 13 4 10 12 9 7 10 10 11 9 9 12 13 18 19 17 21 20 20 19 19 19 18
4 4 3 2 6 11 5 3 1 3 1 2 4 3 2 4 5 6 7 6 8 9 9 9 3 6 5 8 10 16 18 13 13 12 14 17 13 17 19 20 24 23 20 20
3 6 4 7 11 3 6 5 6 6 7 3 2 4 1 1 3 6 5 4 5 5 6 6 6 4 4 6 8 16 16 12 10 10 14 15 9 16 19 22 18 19 16 12
4 5 7 6 9 8 6 6 1 1 9 9 2 2 1 3 7 9 4 4 4 4 4 7 7 5 5 7 8 8 14 10 10 10 11 8 7 18 21 18 21 21 21 19
8 7 10 9 9 5 6 6 4 8 3 5 2 2 1 3 6 5 4 4 4 5 6 7 8 7 7 8 3 7 7 11 9 10 4 6 9 14 11 14 18 18 20 19
5 5 5 4 5 8 9 7 6 5 4 4 3 3 4 4 3 3 3 3 5 4 5 7 7 8 8 5 1 3 8 6 3 3 7 5 3 7 14 14 12 7 14 18
6 4 5 4 4 4 7 4 4 2 5 4 4 3 2 4 3 2 1 3 3 4 4 6 7 7 9 7 3 10 5 5 8 10 15 15 10 10 6 6 7 10 11 13
6 3 5 3 9 5 7 5 4 5 6 6 7 4 2 1 4 4 2 2 4 5 6 6 6 8 10 10 9 9 8 11 14 17 14 12 14 11 8 9 9 9 10 9
3 8 7 5 3 5 7 8 10 8 8 8 7 5 4 2 3 3 3 3 3 4 6 8 8 9 10 12 11 9 10 11 14 13 11 11 11 10 10 9 9 8 7 7
7 7 8 6 8 8 6 13 13 13 12 10 8 7 5 2 3 4 4 4 4 5 5 6 7 8 10 12 12 12 11 12 14 14 12 12 12 11 11 13 13 11 10 9
Wind_Direction
192 207 213 192 225 13 39 334 1 124 168 197 206 209 182 193 202 215 234 230 193 208 180 174 177 175 175 177 180 176 172 161 156 157 163 169 172 169 174 176 171 174 158 175
179 222 202 73 183 224 231 170 111 120 158 243 200 207 179 195 209 214 227 240 208 202 186 178 182 178 180 182 187 183 183 177 172 167 166 173 174 176 177 181 181 176 184 187
205 205 107 199 195 216 227 267 139 348 184 229 246 226 181 204 190 210 222 228 220 200 196 180 188 185 184 183 188 187 190 189 186 175 172 167 165 166 174 182 194 193 191 205
226 117 203 205 210 229 220 198 218 222 256 309 226 292 196 186 196 207 206 218 214 207 201 185 189 192 189 184 188 186 190 189 189 187 183 180 178 180 185 184 185 183 184 185
131 186 202 215 219 212 337 214 192 273 272 285 212 260 121 178 202 198 212 210 208 200 206 200 192 192 192 185 186 187 190 187 188 196 193 188 206 183 188 181 180 192 188 193
74 278 219 225 224 217 112 203 224 255 271 261 206 253 122 165 228 210 201 210 210 205 199 199 200 192 195 189 190 187 187 191 197 197 201 198 203 202 191 191 191 194 197 201
188 204 205 232 219 213 208 224 236 233 222 258 84 255 67 80 260 244 205 203 208 212 196 201 194 194 195 193 192 191 192 195 196 201 204 206 207 204 205 202 215 203 201 206
230 175 201 199 232 200 216 234 251 255 277 315 161 227 110 44 350 240 241 209 203 216 204 199 191 195 194 195 197 194 195 198 197 204 211 214 212 214 221 213 221 215 218 212
198 152 163 224 219 250 191 235 278 278 287 257 170 142 160 21 12 324 209 213 197 208 214 196 189 197 193 194 198 198 197 201 205 209 212 219 217 218 221 219 214 224 234 224
53 202 179 160 198 220 277 225 215 230 276 265 149 156 59 356 358 353 246 218 220 190 215 199 195 197 195 195 197 201 201 201 203 208 211 215 217 219 226 222 222 227 221 237
308 265 132 174 209 186 187 221 248 256 288 291 283 358 20 4 355 338 245 224 188 193 205 206 200 200 196 197 198 199 203 203 203 208 211 215 217 222 227 225 224 227 232 233
17 289 180 157 97 211 297 282 180 181 271 250 224 148 37 27 14 4 45 196 184 165 182 212 205 212 205 199 201 200 200 204 208 208 210 213 216 221 224 226 229 229 221 223
358 267 235 186 172 175 214 228 263 279 127 253 269 94 79 41 20 28 18 9 204 174 184 184 198 199 217 210 207 202 203 205 206 209 211 214 218 223 228 227 228 229 232 234
258 264 290 298 343 110 177 228 234 261 259 255 226 348 61 37 25 9 3 355 317 207 180 205 233 203 211 219 222 208 208 209 209 210 213 217 220 222 226 227 228 229 231 234
293 275 282 319 282 242 144 114 221 259 339 315 75 58 42 24 8 18 1 339 202 152 90 149 198 181 195 196 211 212 221 224 221 219 222 223 225 227 227 225 225 227 227 229
283 256 259 173 137 242 217 208 146 261 57 84 337 105 51 37 45 29 17 6 68 149 155 158 133 171 179 179 157 196 224 227 242 240 238 238 237 232 229 228 222 222 226 227
287 286 249 232 174 225 218 189 207 276 172 301 296 69 111 62 52 39 26 21 5 16 216 187 187 209 231 233 232 254 261 277 255 246 246 239 240 240 237 235 234 227 229 230
258 259 267 235 220 230 77 122 313 273 220 116 125 83 78 80 101 82 57 27 19 15 8 7 27 193 236 229 234 249 248 261 256 248 251 239 241 253 251 243 231 231 235 231
262 257 205 260 226 194 164 190 205 233 177 167 136 149 72 48 193 109 61 62 38 18 2 341 343 335 326 292 260 260 217 230 244 246 256 243 248 258 254 244 228 215 213 215
214 235 266 226 274 252 46 99 156 256 250 157 181 133 238 279 262 92 94 46 37 32 19 1 5 354 340 325 309 259 200 195 230 220 240 252 255 265 253 239 211 204 202 219
203 242 245 232 244 254 106 134 171 227 78 119 129 87 177 300 21 80 79 74 45 15 8 16 17 10 345 338 346 87 146 161 215 216 159 215 218 221 219 218 218 211 201 202
232 235 208 242 260 250 136 146 242 70 122 114 93 86 82 87 111 100 63 41 53 41 13 16 17 8 4 0 52 109 80 87 150 177 199 200 218 253 248 244 218 203 190 184
236 253 344 273 41 88 168 49 104 196 138 118 118 117 121 138 150 114 39 45 54 64 52 37 21 26 26 30 96 100 76 92 115 118 106 106 109 110 95 130 125 129 146 143
183 196 244 219 164 167 183 184 186 174 135 118 109 113 123 145 150 162 161 73 41 43 50 55 50 49 43 47 77 110 122 122 114 116 110 114 123 128 118 125 123 138 130 124
359 159 209 226 158 178 203 203 179 171 149 131 122 113 108 131 145 154 145 123 93 57 56 60 57 57 54 66 69 87 117 136 123 117 111 116 123 126 132 123 116 119 120 138
184 221 216 236 157 216 179 191 187 179 173 166 150 129 117 109 127 151 139 124 121 112 107 89 76 70 61 56 57 67 93 110 113 109 108 115 118 125 126 125 117 115 123 131